This demonstration page uses our WeatherBlox Daily Observations layout. Learn more.

Left ArrowRight Arrow

Hourly Observations for June 1, 2018

Temp ( °F °C ) Dew Point ( °F °C ) Humidity (%) Winds ( mph kmh ) Pressure ( in mb ) Visibility ( mi km ) Precip ( " mm )
12:53 am 00:53 Cloudy 55 12.8 49 9.4 80 80 E 21 33 29.73 1007 10 16 0.00 0.00
1:13 am 01:13 Cloudy 55 12.8 48 8.9 77 77 E 25 41 29.68 1005 10 16 0.00 0.00
1:23 am 01:23 Cloudy with Light Rain 54 12.2 49 9.4 83 83 E 22 35 29.71 1006 7 11 0.01 0.25
1:53 am 01:53 Cloudy with Light Rain 53 11.7 50 10 89 89 E 18 30 29.71 1006 8 13 0.02 0.51
2:44 am 02:44 Cloudy with Light Rain 55 13 52 11 88 88 ESE 16 26 29.68 1005 7 11 0.00 0.00
2:53 am 02:53 Cloudy with Light Rain 55 12.8 51 10.6 87 87 ESE 10 17 29.72 1007 6 10 0.04 1.02
3:53 am 03:53 Cloudy 54 12.2 52 11.1 93 93 SSW 12 19 29.70 1006 10 16 0.04 1.02
4:53 am 04:53 Cloudy 53 11.7 51 10.6 93 93 S 14 22 29.70 1006 10 16 0.00 0.00
5:48 am 05:48 Partly Cloudy 52 11 50 10 94 94 SSW 18 30 29.71 1006 10 16 0.00 0.00
5:53 am 05:53 Partly Cloudy 52 11.1 50 10 93 93 SSW 18 30 29.70 1006 10 16 0.00 0.00
5:57 am 05:57 Mostly Cloudy 52 11.1 50 10 93 93 SSW 18 30 29.71 1006 10 16 0.00 0.00
6:53 am 06:53 Cloudy 52 11.1 50 10 93 93 SW 25 41 29.70 1006 10 16 0.00 0.00
7:53 am 07:53 Cloudy 54 12.2 51 10.6 90 90 WSW 23 37 29.73 1007 10 16 0.00 0.00
8:42 am 08:42 Cloudy 54 12 52 11 94 94 W 23 37 29.74 1007 10 16 0.00 0.00
8:53 am 08:53 Cloudy 54 12.2 51 10.6 90 90 W 24 39 29.77 1008 10 16 0.00 0.00
9:33 am 09:33 Cloudy 57 13.9 51 10.6 81 81 W 21 33 29.71 1006 10 16 0.00 0.00
9:53 am 09:53 Cloudy 57 13.9 50 10 78 78 W 21 33 29.79 1009 10 16 0.00 0.00
10:53 am 10:53 Mostly Cloudy 60 15.6 49 9.4 67 67 WNW 24 39 29.80 1009 10 16 0.00 0.00
11:53 am 11:53 Cloudy 59 15 48 8.9 67 67 WNW 23 37 29.82 1010 10 16 0.00 0.00
12:05 pm 12:05 Cloudy 60 15.6 47 8.3 62 62 WNW 23 37 29.77 1008 10 16 0.00 0.00
12:53 pm 12:53 Cloudy 59 15 46 7.8 62 62 WNW 22 35 29.83 1010 10 16 0.00 0.00
1:53 pm 13:53 Cloudy 58 14.4 47 8.3 67 67 WNW 16 26 29.86 1011 10 16 0.00 0.00
2:53 pm 14:53 Cloudy 59 15 46 7.8 62 62 WNW 22 35 29.88 1012 10 16 0.00 0.00
3:53 pm 15:53 Cloudy 59 15 48 8.9 67 67 NW 15 24 29.91 1013 10 16 0.00 0.00
4:53 pm 16:53 Cloudy 59 15 46 7.8 62 62 NW 20 31 29.93 1014 10 16 0.00 0.00
5:53 pm 17:53 Mostly Sunny 61 16.1 46 7.8 58 58 WNW 21 33 29.95 1014 10 16 0.00 0.00
6:53 pm 18:53 Mostly Sunny 60 15.6 46 7.8 60 60 NW 16 26 29.96 1015 10 16 0.00 0.00
7:53 pm 19:53 Mostly Sunny 58 14.4 46 7.8 65 65 NW 9 15 29.98 1015 10 16 0.00 0.00
8:53 pm 20:53 Sunny 55 12.8 46 7.8 72 72 WNW 9 15 29.99 1016 10 16 0.00 0.00
9:53 pm 21:53 Cloudy 54 12.2 47 8.3 77 77 NW 5 7 30.02 1017 10 16 0.00 0.00
10:53 pm 22:53 Cloudy 53 11.7 49 9.4 86 86 WSW 6 9 30.05 1018 10 16 0.00 0.00
11:53 pm 23:53 Cloudy 53 11.7 49 9.4 86 86 WSW 9 15 30.07 1018 10 16 0.00 0.00

Powered by AerisWeather